Regional Weather Roundup
Issued by NWS New Orleans/Baton Rouge, LA

Home | Current Version | Previous Version | Text Only | Print | Product List | Glossary Off
Versions: 1 2 3 4 5 6 7 8 9 10 11 12 13 14 15 16 17 18 19 20 21 22 23 24 25 26 27 28 29 30 31 32 33 34 35 36 37 38 39 40 41 42 43 44 45 46 47 48 49 50

541
ASUS44 KLIX 180501
RWRLIX
NEW ORLEANS REGIONAL WEATHER ROUNDUP
NATIONAL WEATHER SERVICE NEW ORLEANS LA
1100 PM CST WED DEC 17 2014

NOTE: "FAIR" INDICATES FEW OR NO CLOUDS BELOW 12,000 FEET WITH NO
      SIGNIFICANT WEATHER AND/OR OBSTRUCTIONS TO VISIBILITY.
      SKY/WX - SKY CONDITION AND SIGNIFICANT WEATHER.
      TMP - AIR TEMPERATURE.     DP    - DEWPOINT TEMPERATURE.
      RH  - RELATIVE HUMIDITY.   PRES  - PRESSURE.
      HI  - HEAT INDEX.          WCI   - WIND CHILL INDEX.

*  THESE STATIONS ARE NOT NWS OR FAA STATIONS AND ARE NOT UNDER
   NWS QUALITY CONTROL.

LAZ038-040-048-061>063-065>067-069-180600-
SOUTHEAST LOUISIANA

CITY           SKY/WX    TMP DP  RH WIND       PRES   REMARKS
N.O. AUDUBON     N/A     53  45  74 MISG        N/A
N.O. INTL ARPT CLOUDY    51  42  71 CALM      30.19F
N.O. LAKEFRONT CLOUDY    54  42  64 SE5       30.21S
N.O. DOWNTOWN*   N/A     55  39  54 CALM      30.20S
SLIDELL        CLOUDY    45  41  86 CALM      30.19F
BATON ROUGE    PTCLDY    48  41  76 NE3       30.18R
BOOTHVILLE     CLOUDY    55  50  83 NE3       30.20S
BELLE CHASSE   CLOUDY    47  43  86 NE3       30.19F
BOGALUSA*        N/A     45  42  88 CALM      30.21R
GALLIANO*      NOT AVBL
NEW ROADS*     NOT AVBL
GONZALES*      NOT AVBL
HAMMOND*       NOT AVBL
HOUMA*         CLOUDY    51  47  86 E5        30.17F
PORT FOURCHON* CLEAR     59  52  77 E9        30.19F

$$

MSZ070-080>082-180600-
SOUTHERN MISSISSIPPI

CITY           SKY/WX    TMP DP  RH WIND       PRES   REMARKS
MCCOMB         MOCLDY    45  40  82 CALM      30.19S
GULFPORT       CLOUDY    47  42  83 CALM      30.20F
BILOXI         CLOUDY    49  43  79 E3        30.20F
PASCAGOULA     MOCLDY    42  40  92 CALM      30.21F

$$

COASTAL OBSERVATIONS
LAKE AND NEARSHORE STATIONS

STATION/POSITION TIME  TEMP    WIND        PRES    WAVE
                       AIR SEA DIR/SP/G            HT/PER
                 (UTC) (F)     (DEG/KT/KT) (MB)    (FT/S)
PASCAGOULA       0400   51      40/  2/  3 1022.5
WAVELAND YACHT   0400   52      80/  3/  4 1021.8
GRAND ISLE       0400   58 62   80/  6/ 10 1022.7
SOUTHWEST PASS   0400   56                 1022.4
NEW CANAL        0400   52 57  140/  2/  3 1022.7
SHELL BEACH      0400   55 60  110/  6/  6 1022.5

OFFSHORE STATIONS

STATION/POSITION TIME  TEMP    WIND        PRES    WAVE
                       AIR SEA DIR/SP/G            HT/PER
                 (UTC) (F)     (DEG/KT/KT) (MB)    (FT/S)
64 S DAUPHIN ISL 0500   61 74   80/  4/  6 1021.7    1/ 4

$$




USA.gov is the U.S. government's official web portal to all federal, state and local government web resources and services.